This is the latest recevied weather packets stored in our database for station/object N5JXS. If no packets are shown the sender has not sent any weather packets the latest 10 day(s).
| Time | Temp. | Humidity | Pressure | Rain* | Wind** | Luminosity | Snow |
|---|---|---|---|---|---|---|---|
| 1778098870 | -0.56° C | 86% | 1021.2 hPa | 0 mm | - | 152 W/m² | - |
| 1778098567 | -0.56° C | 86% | 1021 hPa | 0 mm | - | 115 W/m² | - |
| 1778098264 | -0.56° C | 86% | 1020.9 hPa | 0 mm | - | 88 W/m² | - |
| 1778097960 | 0° C | 86% | 1021 hPa | 0 mm | - | 117 W/m² | - |
| 1778097657 | 0° C | 85% | 1021 hPa | 0 mm | - | 157 W/m² | - |
| 1778097353 | 0° C | 85% | 1020.7 hPa | 0 mm | - | 142 W/m² | - |
| 1778097050 | 0° C | 85% | 1020.9 hPa | 0 mm | - | 164 W/m² | - |
| 1778096748 | 0° C | 86% | 1020.9 hPa | 0 mm | - | 419 W/m² | - |
| 1778096444 | 0° C | 85% | 1020.9 hPa | 0 mm | - | 220 W/m² | - |
| 1778096142 | -0.56° C | 88% | 1020.9 hPa | 0 mm | - | 277 W/m² | - |
| 1778095839 | -1.11° C | 89% | 1020.7 hPa | 0 mm | - | 110 W/m² | - |
| 1778095536 | -1.11° C | 88% | 1020.9 hPa | 0 mm | - | 84 W/m² | - |
| 1778095231 | -1.11° C | 87% | 1020.9 hPa | 0 mm | - | 46 W/m² | - |
| 1778094928 | 0° C | 85% | 1020.9 hPa | 0 mm | - | 58 W/m² | - |
| 1778094624 | 0° C | 85% | 1020.6 hPa | 0 mm | - | 146 W/m² | - |
| 1778094322 | 0° C | 87% | 1020.9 hPa | 0 mm | - | 168 W/m² | - |
| 1778094019 | 0° C | 86% | 1020.9 hPa | 0 mm | - | 143 W/m² | - |
| 1778093716 | 0° C | 87% | 1020.9 hPa | 0 mm | - | 145 W/m² | - |
| 1778093412 | 0.56° C | 85% | 1021 hPa | 0 mm | - | 196 W/m² | - |
| 1778093109 | 0° C | 85% | 1020.6 hPa | 0 mm | - | 189 W/m² | - |
| 1778092807 | 0° C | 85% | 1021 hPa | 0 mm | - | 176 W/m² | - |
| 1778092502 | -0.56° C | 86% | 1020.7 hPa | 0 mm | - | 169 W/m² | - |
| 1778092199 | -1.11° C | 87% | 1021.1 hPa | 0 mm | - | 124 W/m² | - |
| 1778091896 | -1.11° C | 86% | 1020.9 hPa | 0 mm | - | 101 W/m² | - |
| 1778091593 | 0° C | 86% | 1021 hPa | 0 mm | - | 115 W/m² | - |
* Rain latest hour (hover to see other rain measurements)
** Current wind speed in m/s (hover to see current wind gust speed)